Voltar ao catálogo

OPS 4682 DEB

AtivoPO
NORAD 38398·DEBRIS·🇺🇸 United States

Lançado Apr 3, 1965 de Vandenberg Space Force Base

Loading…

Próximas Passagens (próximas 24 horas)

TLE

AtualizadoSource: Space-Track

Época: Sep 14, 2026, 14:15 UTC

1 38398U 65027DB  26257.59390080 -.00000143  00000-0 -51987-3 0  9990
2 38398  90.2715  20.0266 0017856 227.9277 132.0325 12.97177613674845

Acompanhe OPS 4682 DEB em tempo real com AllMySat

Download on the App Store